Location: Unspecified
(50.7693°N, 0.0000°E)
Time: 13:32:36
(UTC+00:00)

Transit 4A - Pass Details

Date: 03 July 2019
Orbit: 862 x 982 km, 66.8° (Epoch: 17 July)

Event Time Altitude Azimuth Distance (km) Brightness Sun altitude
Rises 14:22:28 0° 321° (NW) 3,692 11.1 51.4°
Reaches altitude 10° 14:25:05 10° 319° (NW) 2,733 10.6 51.1°
Maximum altitude 14:31:23 63° 240° (WSW) 1,065 10.4 50.2°
Drops below altitude 10° 14:37:30 10° 160° (SSE) 2,653 10.5 49.4°
Sets 14:40:01 0° 157° (SSE) 3,576 11.0 49.0°
